| time (UTC) | temp C | wind direction | speed KPH | gust KPH | rain 1hr cm | rain 24hr cm | rain mn cm | humidity % | barometer mb |
| 20260901074520 | 22 | 148 | 0.0 | 0.0 | 0.03 | 0.71 | 0.03 | 95 | 1012.4 |
| 20260901073018 | 22 | 148 | 0.0 | 0.0 | 0.00 | 0.69 | 0.00 | 95 | 1012.4 |
| 20260901070017 | 22 | 148 | 0.0 | 0.0 | 0.00 | 0.69 | 0.00 | 95 | 1012.4 |
| 20260901064516 | 22 | 148 | 0.0 | 0.0 | 0.00 | 0.69 | 0.00 | 95 | 1012.3 |
| 20260901063018 | 22 | 148 | 0.0 | 0.0 | 0.00 | 0.69 | 0.00 | 95 | 1012.1 |
| 20260901060012 | 23 | 148 | 0.0 | 0.0 | 0.00 | 0.69 | 0.00 | 95 | 1012.0 |
| 20260901054512 | 23 | 148 | 0.0 | 0.0 | 0.00 | 0.69 | 0.00 | 95 | 1012.2 |
| 20260901053009 | 23 | 148 | 0.0 | 0.0 | 0.00 | 0.69 | 0.00 | 95 | 1012.3 |
| 20260901051508 | 23 | 148 | 0.0 | 0.0 | 0.00 | 0.69 | 0.00 | 95 | 1012.2 |
| 20260901050006 | 23 | 148 | 0.0 | 1.6 | 0.00 | 0.69 | 0.00 | 95 | 1012.2 |
| 20260901043006 | 23 | 124 | 0.0 | 1.6 | 0.00 | 0.69 | 0.20 | 95 | 1012.4 |
| 20260901041507 | 23 | 53 | 0.0 | 1.6 | 0.00 | 0.69 | 0.20 | 95 | 1012.5 |
| 20260901040004 | 23 | 82 | 0.0 | 1.6 | 0.00 | 0.69 | 0.20 | 95 | 1012.3 |
| 20260901033001 | 24 | 82 | 0.0 | 0.0 | 0.00 | 0.69 | 0.20 | 95 | 1012.4 |
| 20260901031501 | 24 | 53 | 0.0 | 0.0 | 0.00 | 0.69 | 0.20 | 95 | 1012.4 |
| 20260901030101 | 24 | 53 | 0.0 | 0.0 | 0.00 | 0.69 | 0.20 | 95 | 1012.3 |
| 20260901023059 | 24 | 53 | 0.0 | 0.0 | 0.00 | 0.71 | 0.20 | 95 | 1012.7 |
| 20260901021604 | 24 | 74 | 0.0 | 0.0 | 0.00 | 0.71 | 0.20 | 95 | 1012.5 |
| 20260901020059 | 24 | 62 | 0.0 | 0.0 | 0.00 | 0.71 | 0.20 | 95 | 1012.3 |
| 20260901013059 | 24 | 62 | 0.0 | 0.0 | 0.00 | 0.71 | 0.20 | 94 | 1012.3 |
| 20260901011557 | 24 | 62 | 0.0 | 0.0 | 0.00 | 0.71 | 0.20 | 94 | 1012.3 |
| 20260901010056 | 25 | 62 | 0.0 | 0.0 | 0.00 | 0.71 | 0.20 | 93 | 1012.1 |
| 20260901003055 | 25 | 62 | 0.0 | 0.0 | 0.20 | 0.71 | 0.20 | 93 | 1012.1 |
| 20260901001557 | 25 | 62 | 0.0 | 1.6 | 0.20 | 0.71 | 0.20 | 92 | 1011.8 |
| 20260831233021 | 27 | 65 | 0.0 | 0.0 | 0.00 | 0.53 | 0.00 | 89 | 1011.7 |
| 20260831231519 | 27 | 65 | 0.0 | 0.0 | 0.00 | 0.53 | 0.00 | 89 | 1012.5 |
| 20260831230017 | 27 | 65 | 0.0 | 0.0 | 0.00 | 0.53 | 0.00 | 88 | 1012.0 |
| 20260831223103 | 28 | 65 | 0.0 | 0.0 | 0.00 | 0.56 | 0.00 | 85 | 1012.0 |